OE6ATD-13 Weather Reports


time (UTC)temp
F
wind
direction
speed
knots
gust
knots
rain 1hr
in
rain 24hr
in
rain mn
in
humidity
%
barometer
mb
20260507085527 70 173 1.7 5.2 0.00 0.00 0.00 54 1011.6
20260507084523 68 178 1.7 3.5 0.00 0.00 0.00 58 1011.6
20260507083519 66 198 0.9 3.5 0.00 0.00 0.00 60 1011.6
20260507082529 66 188 0.9 3.5 0.00 0.00 0.00 59 1011.6
20260507081525 66 180 0.0 2.6 0.00 0.00 0.00 60 1011.5
20260507080521 65 0.0 0.0 0.00 0.00 0.00 62 1011.2
20260507075517 64 180 0.0 1.7 0.00 0.00 0.00 62 1011.4
20260507074528 63 189 0.0 1.7 0.00 0.00 0.00 62 1011.2
20260507073523 63 0.0 0.0 0.00 0.00 0.00 66 1011.3
20260507072519 62 0.0 0.0 0.00 0.00 0.00 67 1011.2
20260507071515 62 0.0 0.0 0.00 0.00 0.00 68 1011.0
20260507070516 61 0.0 0.0 0.00 0.00 0.00 71 1010.8
20260507065527 60 0.0 0.0 0.00 0.00 0.00 72 1010.8
20260507064522 60 0.0 0.0 0.00 0.00 0.00 73 1010.7
20260507063518 60 0.0 0.0 0.00 0.00 0.00 74 1010.5
20260507062529 59 0.0 0.0 0.00 0.00 0.00 76 1010.6
20260507061525 59 0.0 0.0 0.00 0.00 0.00 77 1010.6
20260507060521 58 0.0 0.0 0.00 0.00 0.00 76 1010.5
20260507055517 58 0.0 0.0 0.00 0.00 0.00 77 1010.3
20260507054528 58 0.0 0.0 0.00 0.00 0.00 77 1010.2
20260507053523 57 0.0 0.0 0.00 0.00 0.00 77 1010.2
20260507052519 57 0.0 0.0 0.00 0.00 0.00 77 1010.2
20260507051530 57 0.0 0.0 0.00 0.00 0.00 77 1010.1
20260507050526 56 0.0 0.0 0.00 0.00 0.00 78 1009.9
20260507045522 56 0.0 0.0 0.00 0.00 0.00 77 1009.9
20260507044517 57 0.0 0.0 0.00 0.00 0.00 76 1009.6
20260507043528 57 0.0 0.0 0.00 0.00 0.00 76 1009.6
20260507042524 56 0.0 0.0 0.00 0.00 0.00 76 1009.5
20260507041520 57 0.0 0.0 0.00 0.00 0.00 76 1009.5
20260507040530 57 0.0 0.0 0.00 0.00 0.00 76 1009.4
20260507035526 56 0.0 0.0 0.00 0.00 0.00 77 1009.4
20260507034521 56 0.0 0.0 0.00 0.00 0.00 77 1009.5
20260507033517 56 0.0 0.0 0.00 0.00 0.00 76 1009.5
20260507032519 56 0.0 0.0 0.00 0.00 0.00 75 1009.4
20260507031515 57 0.0 0.0 0.00 0.00 0.00 74 1009.4
20260507030526 58 0.0 0.0 0.00 0.00 0.00 72 1009.4
20260507025522 58 0.0 0.0 0.00 0.00 0.00 72 1009.4
20260507024518 59 0.0 0.0 0.00 0.00 0.00 71 1009.4
20260507023529 59 0.0 0.0 0.00 0.00 0.00 71 1009.4
20260507022525 59 0.0 0.0 0.00 0.00 0.00 71 1009.5
20260507021520 59 0.0 0.0 0.00 0.00 0.00 71 1009.4
20260507020531 59 0.0 0.0 0.00 0.00 0.00 71 1009.5
20260507015517 60 315 0.0 1.7 0.00 0.00 0.00 71 1009.5
20260507014528 60 0.0 0.0 0.00 0.00 0.00 70 1009.5
20260507013525 60 0.0 0.0 0.00 0.00 0.00 70 1009.3
20260507012520 61 0.0 0.0 0.00 0.00 0.00 69 1009.3
20260507011516 61 0 0.0 0.9 0.00 0.00 0.00 69 1009.2
20260507010527 61 0.0 0.0 0.00 0.00 0.00 68 1009.1
20260507005522 61 276 0.9 3.5 0.00 0.00 0.00 68 1009.2
20260507004518 61 270 0.0 2.6 0.00 0.00 0.00 68 1009.2
20260507003529 61 321 0.0 2.6 0.00 0.00 0.00 67 1009.2
20260507002525 62 274 0.0 3.5 0.00 0.00 0.00 68 1009.2
20260507001521 61 250 0.0 3.5 0.00 0.00 0.00 68 1009.3
20260507000516 61 0.0 0.0 0.00 0.00 0.00 69 1009.5
20260506235527 61 171 0.0 3.5 0.00 0.00 0.00 69 1009.4
20260506234523 61 251 0.0 2.6 0.00 0.00 0.00 67 1009.5
20260506233519 62 297 0.0 3.5 0.00 0.00 0.00 67 1009.5
20260506232530 62 231 0.0 1.7 0.00 0.00 0.00 67 1009.5
20260506231526 62 270 0.0 1.7 0.00 0.00 0.00 67 1009.6
20260506230521 62 0.0 0.0 0.00 0.00 0.00 66 1009.6
20260506225517 62 315 0.0 2.6 0.00 0.00 0.00 66 1009.4
20260506224528 62 225 0.0 0.9 0.00 0.00 0.00 66 1009.5
20260506223524 62 270 0.0 0.9 0.00 0.00 0.00 66 1009.3
20260506222520 63 0.0 0.0 0.00 0.00 0.00 66 1009.2
20260506221516 63 0.0 0.0 0.00 0.00 0.00 66 1009.2
20260506220526 63 0.0 0.9 0.00 0.00 0.00 66 1009.1
20260506215522 62 270 0.0 1.7 0.00 0.00 0.00 67 1009.1
20260506214524 62 234 1.7 7.0 0.00 0.00 0.00 70 1009.3
20260506213520 59 253 0.0 2.6 0.00 0.00 0.00 76 1009.3
20260506212516 59 0.0 0.0 0.00 0.00 0.00 76 1009.1
20260506211527 58 0.0 0.0 0.00 0.00 0.00 75 1009.0
20260506210522 58 0.0 0.0 0.00 0.00 0.00 75 1009.0
20260506205518 59 0.0 0.0 0.00 0.00 0.00 74 1009.0
20260506204529 59 0.0 0.0 0.00 0.00 0.00 73 1008.9
20260506203525 59 0.0 0.0 0.00 0.00 0.00 73 1009.0
20260506202521 59 0.0 0.0 0.00 0.00 0.00 72 1008.9
20260506201517 60 0.0 0.0 0.00 0.00 0.00 71 1008.9
20260506200527 61 0.0 0.0 0.00 0.00 0.00 71 1008.8
20260506195522 61 214 0.0 1.7 0.00 0.00 0.00 70 1008.8
20260506194518 62 0.0 0.0 0.00 0.00 0.00 68 1008.8
20260506193529 62 0.0 0.0 0.00 0.00 0.00 68 1008.9
20260506192524 62 0.0 0.0 0.00 0.00 0.00 64 1008.6
20260506191520 63 180 0.0 0.9 0.00 0.00 0.00 64 1008.6
20260506190516 62 315 2.6 4.3 0.00 0.00 0.00 64 1008.4
20260506185527 63 191 0.0 2.6 0.00 0.00 0.00 61 1008.2
20260506184528 64 0.0 0.0 0.00 0.00 0.00 60 1008.3
20260506183523 64 180 0.0 0.9 0.00 0.00 0.00 59 1008.0
20260506182519 65 237 0.0 4.3 0.00 0.00 0.00 59 1008.0
20260506181515 65 211 0.0 3.5 0.00 0.00 0.00 59 1007.9
20260506180526 66 0.0 0.0 0.00 0.00 0.00 57 1007.7
20260506175522 66 247 0.0 2.6 0.00 0.00 0.00 56 1007.9
20260506174518 67 197 0.0 2.6 0.00 0.00 0.00 54 1007.8
20260506173528 68 204 0.0 2.6 0.00 0.00 0.00 54 1007.8
20260506172525 69 203 1.7 6.1 0.00 0.00 0.00 53 1007.7
20260506171520 71 263 0.9 3.5 0.00 0.00 0.00 51 1007.7
20260506170516 71 262 0.9 2.6 0.00 0.00 0.00 52 1007.6
20260506165527 72 188 0.9 5.2 0.00 0.00 0.00 52 1007.7
20260506164522 70 258 0.9 3.5 0.00 0.00 0.00 54 1007.7
20260506163519 69 258 2.6 8.7 0.00 0.00 0.00 54 1007.8
20260506162530 70 267 2.6 8.7 0.00 0.00 0.00 53 1008.0
20260506161525 70 225 2.6 6.1 0.00 0.00 0.00 54 1008.2
20260506160521 69 180 5.2 6.1 0.00 0.00 0.00 55 1008.3
20260506155517 69 233 1.7 7.8 0.00 0.00 0.00 55 1008.1
20260506154528 69 182 1.7 5.2 0.00 0.00 0.00 55 1008.3
20260506153523 69 193 1.7 7.8 0.00 0.00 0.00 55 1008.3
20260506152519 70 206 3.5 7.8 0.00 0.00 0.00 54 1008.3
20260506151516 70 202 1.7 4.3 0.00 0.00 0.00 53 1008.3
20260506150526 69 0.0 0.0 0.00 0.00 0.00 55 1008.4
20260506145521 69 284 3.5 7.8 0.00 0.00 0.00 54 1008.2
20260506144517 69 298 1.7 5.2 0.00 0.00 0.00 54 1008.3
20260506143528 69 306 3.5 6.1 0.00 0.00 0.00 53 1008.3
20260506142524 69 263 2.6 10.4 0.00 0.00 0.00 53 1008.5
20260506141520 69 309 1.7 6.1 0.00 0.00 0.00 52 1008.4
20260506140515 71 225 5.2 8.7 0.00 0.00 0.00 50 1008.5
20260506135527 72 257 2.6 7.8 0.00 0.00 0.00 47 1008.5
20260506134521 72 248 6.1 16.5 0.00 0.00 0.00 45 1008.4
20260506133517 73 295 3.5 10.4 0.00 0.00 0.00 44 1008.4
20260506132528 73 282 1.7 5.2 0.00 0.00 0.00 43 1008.3
20260506131523 74 261 2.6 7.8 0.00 0.00 0.00 42 1008.4
20260506130520 75 299 5.2 10.4 0.00 0.00 0.00 42 1008.4
20260506125515 74 255 4.3 10.4 0.00 0.00 0.00 42 1008.4
20260506124525 75 308 4.3 9.6 0.00 0.00 0.00 42 1008.5
20260506123521 75 270 5.2 10.4 0.00 0.00 0.00 41 1008.5
20260506122516 75 256 4.3 8.7 0.00 0.00 0.00 42 1008.5
20260506121527 75 267 3.5 8.7 0.00 0.00 0.00 40 1008.6
20260506120523 76 315 5.2 7.8 0.00 0.00 0.00 40 1008.7
20260506115519 76 204 4.3 10.4 0.00 0.00 0.00 41 1008.6
20260506114530 74 216 3.5 10.4 0.00 0.00 0.00 42 1008.6
20260506113525 73 234 6.1 10.4 0.00 0.00 0.00 44 1008.5
20260506112522 71 237 2.6 5.2 0.00 0.00 0.00 50 1008.7
20260506111517 71 262 1.7 7.8 0.00 0.00 0.00 50 1009.0
20260506110528 70 304 3.5 7.8 0.00 0.00 0.00 51 1009.1
20260506105524 70 237 2.6 7.8 0.00 0.00 0.00 51 1009.2
20260506104526 70 232 0.9 4.3 0.00 0.00 0.00 51 1009.3
20260506103522 69 271 1.7 7.0 0.00 0.00 0.00 51 1009.3
20260506102518 69 257 3.5 7.8 0.00 0.00 0.00 51 1009.5
20260506101529 69 229 4.3 9.6 0.00 0.00 0.00 51 1009.5
20260506100525 69 315 1.7 2.6 0.00 0.00 0.00 51 1009.6
20260506095520 70 221 0.9 6.1 0.00 0.00 0.00 50 1009.6
20260506094523 69 275 1.7 7.8 0.00 0.00 0.00 50 1009.6
20260506093519 72 288 3.5 9.6 0.00 0.00 0.00 44 1009.4
20260506092529 74 296 1.7 7.0 0.00 0.00 0.00 42 1009.3
20260506091525 74 268 0.9 5.2 0.00 0.00 0.00 41 1009.2
20260506090521 74 339 0.9 3.5 0.00 0.00 0.00 41 1009.2